7 * 24
多渠道服务支持
STARLINK-32526是美国SpaceX公司星链(Starlink)星座中的第二代低轨通信卫星,于2024年11月30日发射入轨。它采用平板设计,搭载增强型相控阵天线与标配激光星间链路,使用氪离子霍尔推进器,具备自主轨道维持和主动避撞能力。运行在低轨轨道,可为全球提供高速低时延宽带互联网服务,支持传统终端及手机直连通信,退役后将主动离轨再入大气层烧毁。
美国
(US)
| 数据来源 | 国际轨道数据 |
| 星历时间: | 2026-09-04T08:27:02+0800 18小时前 查看轨道信息 |
| 半长轴: | 6861.166km |
| 偏心率: | 0.0000787 |
| 轨道倾角: | 43.001° |
| 近地点辐角 | 232.576° |
| 升交点赤经 | 234.412° |
| 平近点角 | 127.502° |
| 近地点: | 482.489km |
| 远地点: | 483.569km |
| 周期: | 94.266分钟 |
| 每日圈数: | 15.27587 |
| 事件ID | 空间交会对象 | 最接近时刻(TCA) | 交会距离 | 交会风险概率(CRP) | 交会风险指数(CRI) | 操作 |
|---|---|---|---|---|---|---|
| CDM_260906-212405-789606-216221 |
STARLINK-30469
(57896)
STARLINK-32526
(62162) | 2026-09-06T 21:24:59+0000 |
0.971 km
远距离 | 2.298295E-5 中风险 | 0.62 |